www.pogodaiklimat.ru

Архив погоды в Выборге (Ленинградская область, Россия)

Время
(UTC), дата
00 7.04
03 7.04
06 7.04
09 7.04
12 7.04
15 7.04
18 7.04
21 7.04
00 8.04
03 8.04
06 8.04
09 8.04
12 8.04
15 8.04
18 8.04
21 8.04
00 9.04
03 9.04
06 9.04
09 9.04
12 9.04
15 9.04
18 9.04
21 9.04
00 10.04
03 10.04
06 10.04
09 10.04
12 10.04
15 10.04
18 10.04
21 10.04
00 11.04
03 11.04
06 11.04
09 11.04
12 11.04
15 11.04
18 11.04
21 11.04
00 12.04
03 12.04
06 12.04
09 12.04
12 12.04
15 12.04
18 12.04
21 12.04
00 13.04
03 13.04
06 13.04
09 13.04
12 13.04
15 13.04
18 13.04
21 13.04
Ветер
(напр.,м/с)
Видим. Явления Облачность Т
(С)
Тd
(С)
f
(%)
Тe
(С)
Тes
(С)
Комфортность P
(гПа)
Po
(гПа)
Тmin
(С)
Tmax
(С)
R
(мм)
R24
(мм)
S
(см)
штиль 0 10 км 6/0
[Ci fib]
-2.1 -4.3 85 -3 -3 по сезону 1016.5 1015.2
штиль 0 20 км 10/0
[Ac trans Ci fib]
-2.3 -3.4 92 -4 -4 по сезону 1017.5 1016.2 -2.6
Ю 3 20 км 10/6 800 м
[Sc Ac trans Ci fib]
-0.6 -2.5 87 -5 -5 по сезону 1017.6 1016.3 -2.6
Ю 6 20 км 10/8 400 м
[Sc Ac trans]
+1.5 -0.5 87 -5 -5 прохладно 1015.5 1014.2
Ю 6 {10} 20 км 10/4 600 м
[Sc Ac trans]
+2.1 0.0 86 -4 -3 прохладно 1012.9 1011.6
Ю 6 20 км 9/0
[Ac trans]
+3.3 +1.4 87 -2 -2 по сезону 1008.1 1006.8
ЮЗ 10-14 {15} 10 км 10/10 660 м
[Sc]
+7.1 +4.4 83 +2 +2 по сезону 1005.5 1004.3 +8.0
ЮЗ 5 {13} 10 км 10/10 480 м
[Sc]
+4.0 +3.5 97 -1 -1 по сезону 1006.1 1004.8
Ю 7 {13} 2000 м дымка 10/10 90 м
[St]
+2.7 +2.6 99 -4 -4 по сезону 1006.6 1005.3
ЮЗ 3 200 м туман, небо не видно ?/? +2.3 +2.3 100 -2 -2 по сезону 1007.5 1006.2 +1.9
ЮЗ 4 20 км {туман} 3/0
[Ac trans Ci fib]
+3.2 +2.4 94 -2 0 по сезону 1009.0 1007.7 +1.7
Ю 9-11 {11} 20 км 3/0
[Ci fib]
+4.3 +2.0 85 -2 -1 по сезону 1010.9 1009.6
Ю 9-11 {11} 20 км 4/0
[Ci fib]
+4.8 +2.4 84 -1 -1 по сезону 1011.2 1010.0
ЮЗ 5 20 км 6/0
[Ac trans Ci fib]
+6.1 +2.8 79 +2 +2 по сезону 1011.2 1009.9
ЮЗ 6 20 км 8/3 600 м
[Cb cap Ac trans Ci fib]
+5.6 +4.9 95 +1 +1 по сезону 1010.6 1009.3 +6.3
Ю 3 {10} 10 км 3/0
[Ac trans]
+2.8 +2.7 99 -2 -2 по сезону 1011.2 1009.9
Ю 2 {10} 10 км 9/9 300 м
[Sc]
+4.8 +3.6 92 +2 +2 тепло 1011.6 1010.3
Ю 1 10 км 10/10 120 м
[St]
+3.7 +3.6 99 +2 +2 тепло 1012.5 1011.2 +2.6
штиль 0 200 м туман, небо не видно ?/? +3.8 +3.8 100 +3 +3 тепло 1013.4 1012.1 +2.6
ЮЗ 2 20 км дымка {туман} 10/10 60 м
[St]
+5.3 +5.3 100 +2 +2 по сезону 1014.1 1012.9
З 1 10 км {туман} 8/3 270 м
[Frnb Ac und]
+9.6 +7.2 85 +9 +12 тепло 1014.2 1013.0
Ю 1 20 км 4/0
[Ac und]
+9.5 +7.0 84 +9 +10 тепло 1014.3 1013.1
штиль 0 10 км 3/0
[Ac und]
+4.8 +4.2 96 +4 +4 тепло 1015.3 1014.0 +10.3
штиль 0 4000 м в посл. час туман 6/0
[Ac As]
+2.9 +2.8 99 +2 +2 тепло 1016.2 1015.0
штиль 0 4000 м {туман} 4/4 30 м
[St]
+1.1 +1.1 100 -0 -0 по сезону 1015.9 1014.6
СВ 1 10 км 10/3 1000 м
[Sc Ci ing]
+2.5 +2.5 100 +1 +1 по сезону 1015.9 1014.6 +0.9
В 2 10 км 10/0
[Ac und]
+5.9 +5.5 97 +3 +4 тепло 1014.5 1013.2 +0.9
ЮВ 5 20 км 9/8 1140 м
[Sc Ac trans]
+11.5 +7.5 76 +9 +10 тепло 1012.0 1010.7
Ю 5 20 км 8/0
[Ac trans Ci fib]
+14.6 +9.6 72 +13 +15 тепло 1008.7 1007.4
Ю 9-11 {14} 20 км 10/0
[Ac und]
+12.4 +4.7 59 +9 +9 тепло 1009.4 1008.2
ЮЗ 5 {14} 10 км в посл. час ливневой дождь 10/8 1200 м
[Cb cap Ac As]
+8.0 +4.1 76 +4 +4 тепло 1009.4 1008.2 +18.9 0.5
ЮЗ 7 {12} 10 км 8/8 930 м
[Cb cap]
+4.4 +2.6 88 -1 -1 по сезону 1009.4 1008.2
ЮЗ 10-13 {14} 10 км 4/0
[Ac trans]
+4.3 +1.9 84 -2 -2 по сезону 1009.0 1007.7
ЮЗ 6 {13} 20 км ясно +3.1 +1.2 87 -3 -3 по сезону 1010.3 1009.0 +2.9 0.5
ЮЗ 8-10 {13} 20 км ясно +3.7 +1.0 83 -3 -2 по сезону 1012.1 1010.8 +2.8
ЮЗ 10-12 {12} 10 км 1/0
[Ac trans]
+5.6 +1.3 74 -0 0 по сезону 1013.5 1012.2
ЮЗ 11-15 {15} 10 км 4/0
[Ci fib]
+7.0 +1.1 66 +1 +2 по сезону 1014.4 1013.1
ЮЗ 11-15 {18} 10 км 9/4 600 м
[Cu med, cong Ac trans Ci sp]
+7.4 -0.7 56 +2 +2 по сезону 1013.6 1012.3
Ю 6 {18} 10 км слаб. ливневой дождь 10/8 1000 м
[Cb cap Ac trans]
+2.7 +2.1 96 -3 -3 прохладно 1012.0 1010.7 +8.5 0.7
ЮЗ 9-12 {13} 4000 м слаб. ливневой дождь 10/10 120 м
[Cb cap]
+4.0 +3.8 99 -3 -3 по сезону 1007.2 1005.9
ЮЗ 5 {13} 10 км слаб. ливневой дождь 10/10 180 м
[Cb cap]
+3.9 +3.8 99 -1 -1 по сезону 1005.3 1004.0
З 6 10 км {ливн. дождь} 10/10 450 м
[Sc]
+5.5 +5.3 99 0 0 по сезону 1005.9 1004.6 +2.7 7
СЗ 4 {11} 10 км в посл. час ливневой дождь 9/5 600 м
[Cb cap Ac trans Ci sp]
+5.3 +3.5 88 +1 +2 по сезону 1008.1 1006.8 +2.7 6
СЗ 4 {10} 20 км 8/8 800 м
[Sc]
+7.2 +3.0 75 +4 +5 тепло 1011.0 1009.7
З 5 {10} 20 км 5/5 600 м
[Sc]
+10.7 +1.7 54 +8 +10 тепло 1012.5 1011.2
СЗ 3 {10} 20 км 8/3 600 м
[Cu hum Ci fib]
+11.4 +0.4 47 +10 +11 тепло 1012.9 1011.6 0.0
Ю 2 {10} 20 км ясно +5.0 +1.5 78 +3 +3 по сезону 1013.7 1012.4 +12.0
Ю 1 20 км ясно +1.8 +1.1 95 -0 -0 по сезону 1013.8 1012.5
штиль 0 10 км ясно +0.2 0.0 99 -1 -1 по сезону 1013.0 1011.6
ЮВ 2 20 км 3/0
[Ac trans Ci fib]
+0.7 +0.5 99 -3 -3 по сезону 1012.4 1011.1 -0.1
ЮЗ 4 500 м туман, небо не видно ?/? +3.2 +3.1 99 -2 -2 по сезону 1012.1 1010.8 -0.1
Ю 3 4000 м слаб. морось {туман} 10/10 60 м
[St]
+4.5 +4.5 100 +1 +1 по сезону 1011.8 1010.5
ЮЗ 6 500 м туман, небо не видно {морось} ?/? +4.9 +4.9 100 -1 -1 прохладно 1010.8 1009.5
ЮЗ 6 500 м туман, небо не видно {морось} ?/? +5.3 +5.3 100 0 0 по сезону 1008.9 1007.6 0.3
ЮЗ 4 10 км {морось, туман} 10/10 90 м
[St]
+4.3 +4.3 100 -0 -0 по сезону 1007.1 1005.8 +5.5 0.3
ЮЗ 6 4000 м слаб. дождь 10/10 120 м
[Frnb]
+5.0 +4.9 99 -0 -0 по сезону 1005.1 1003.8
Местоположение метеостанции Выборг (Ленинградская область, Россия): широта 60.72 долгота 28.73 высота над уровнем моря 13 м.
В архиве по умолчанию представлена погода в Выборге за последнюю неделю. Архивные данные за месяц целиком и за предыдущие месяцы, начиная с января 2011 года, Вы можете получить, выбрав интересующий диапазон дат из раскрывающегося списка и нажав кнопку "Найти!".
*Определитесь, кто Вы:
Внимание! Время в таблицах - всемирное. Для получения местного времени необходимо прибавить поправку, которая равна 3 ч.
Некоторые строки с данными для отдельных станций могут быть выделены курсивом. Это означает, что фактические данные отсутствуют по различным причинам, а приведенные значения являются расчетными модельными данными для данного пункта наблюдений.
Смотрите также архив погоды в соседних городах и на ближайших метеорологических станциях:
Партнеры нашего сайта:      
Пояснения к столбцам:
  • Ветер - указаны скорость ветра в м/с - средняя за 10 мин, порывы в срок и между сроками (в фигурных скобках) и направление, откуда дует ветер: С - северный,
  • СВ - северо-восточный, В - восточный, ЮВ - юго-восточный, Ю - южный, ЮЗ - юго-западный, З - западный, СЗ - северо-западный.
  • Видимость - горизонтальная дальность видимости в метрах или километрах. При видимости от 1 до 10 км при отсутствии осадков обычно наблюдается дымка, при ухудшении видимости до 1 км и менее - туман. В сухую погоду видимость может ухудшаться дымом, пылью или мглою.
  • Явления - указаны атмосферные явления, наблюдавшиеся в срок или в последний час перед сроком; фигурными скобками обозначены явления, наблюдавшиеся между сроками (за 1-3 часа до срока); квадратными скобками обозначены град или гололедные отложения с указанием их диаметра в мм.
  • Облачность - указаны через наклонную черту общая и нижняя облачность в баллах и высота нижней границы облаков в метрах; квадратными скобками обозначены формы облаков: Ci - перистые, Cs - перисто-слоистые, Cc - перисто-кучевые, Ac - высококучевые, As - высокослоистые, Sc - слоисто-кучевые, Ns - слоисто-дождевые, Cu - кучевые, Cb - кучево-дождевые. Подробнее классификацию облаков см. в Атласе облаков (PDF).
  • T - Температура воздуха - температура, измеренная на высоте 2 м над землей.
  • Td - Температура точки росы - температура, при понижении до которой содержащийся в воздухе водяной пар достигнет насыщения.
  • f - Относительная влажность воздуха - влажноcть воздуха, измеренная на высоте 2 м над землей.
  • Te - Эффективная температура - температура, которую ощущает одетый по сезону человек в тени. Характеристика душности погоды. При расчете учитывается влияние влажности воздуха и скорости ветра на теплоощущения человека.
  • Tes - Эффективная температура на солнце - температура, которую ощущает человек, с поправкой на солнечный нагрев. Характеристика знойности погоды. Зависит от высоты солнца над горизонтом, облачности и скорости ветра. Ночью, в пасмурную погоду, а также при ветре 12 м/с и более поправка равна нулю.
  • P - Атмосферное давление - приведенное к уровню моря атмосферное давление.
  • Po - Атмосферное давление - измеренное на уровне метеостанции атмосферное давление.
  • Tmin - Минимальная температура - минимум температуры воздуха на высоте 2 м над землей.
  • Tmax - Максимальная температура - максимум температуры воздуха на высоте 2 м над землей.
  • R - Количество осадков - Количество выпавших осадков за период времени, мм. При наведении курсора мыши на число - период времени, за который выпало указанное количество осадков.
  • R24 - Количество осадков - Количество выпавших осадков за 24 часа, мм.
  • S - Снежный покров - Высота снежного покрова, см. При наведении курсора мыши на число - состояние снежного покрова и степень покрытия местности в баллах.